#timestamp,LO_Frequency,Hit,StdDev 
1526173215.1,286047004.4,P
1526173235.8,286047001.7,N
1526173255.7,286047003.9,Y
1526173275.5,286047000.9,P
1526173295.4,286046997.1,P
1526173315.2,286046997.4,N
1526173335.0,286046996.6,N
1526173335.9,286046996.6,N
1526173355.8,286046996.7,N
1526173375.6,286046997.2,N
1526173395.5,286046999.5,N
1526173415.3,286046999.6,N
1526173435.1,286046994.9,N
1526173455.9,286046996.5,N
1526173475.7,286046995.6,N
1526173495.5,286046997.7,N
1526173515.4,286046997.9,N
1526173535.2,286046996.6,N
1526173555.1,286046996.1,N
1526173556.0,286046996.1,N
1526173575.8,286046995.1,N
1526173595.6,286046994.9,N
1526173615.5,286046997.7,N
1526173635.3,286046998.0,N
1526173655.1,286046996.2,N
1526173675.9,286046995.8,N
1526173695.7,286046996.4,N
1526173715.6,286046995.6,N
1526173735.4,286046995.2,N
1526173755.2,286046997.0,N
1526173775.1,286046997.5,N
1526173776.0,286046997.5,N
1526173795.8,286046996.2,N
1526173815.7,286046995.9,Y
1526173835.5,286046999.5,P
1526173855.3,286046999.4,N
1526173875.2,286046997.4,N
1526173895.0,286046999.5,N
1526173895.9,286046999.5,N
1526173915.8,286046998.0,N
1526173935.6,286046996.9,N
1526173955.4,286046996.6,Y
1526173975.3,286046999.0,P
1526173995.1,286046998.2,P
1526174015.8,286047000.6,N
1526174035.7,286047001.6,N
1526174055.5,286047002.5,N
1526174075.4,286047000.3,N
1526174095.2,286047000.7,N
1526174115.0,286046998.1,N
1526174115.9,286046998.1,N
1526174135.8,286047000.6,N
1526174155.6,286046998.4,N
1526174175.5,286046999.2,N
1526174195.3,286047001.1,N
1526174215.1,286047001.0,N
1526174235.9,286046998.9,N
1526174255.7,286046998.5,N
1526174275.6,286046998.6,N
1526174295.4,286046999.5,N
1526174315.2,286046999.4,N
1526174335.1,286046996.9,N
1526174336.0,286046996.9,N
1526174355.8,286046995.0,Y
1526174375.7,286046995.7,P
1526174395.5,286046995.7,N
1526174415.3,286046995.1,N
1526174435.2,286046995.9,N
1526174455.0,286046996.0,N
1526174455.9,286046996.0,N
1526174475.8,286046996.0,Y
1526174495.6,286047000.4,P
1526174515.4,286047001.4,N
1526174535.3,286047004.1,N
1526174555.1,286047004.2,N
1526174575.8,286047004.3,N
1526174595.7,286047002.3,N
1526174615.5,286047001.6,N
1526174635.3,286047002.1,N
1526174655.2,286047002.2,N
1526174675.0,286047003.7,N
1526174675.9,286047003.7,N
1526174695.8,286047005.6,N
1526174715.6,286047003.6,N
1526174735.4,286047001.7,N
1526174755.3,286047002.9,N
1526174775.1,286047004.3,N
1526174795.9,286047001.8,N
1526174815.7,286047003.5,N
1526174835.5,286047003.3,N
1526174855.4,286047001.7,N
1526174875.2,286047003.0,N
1526174895.0,286047001.7,N
1526174895.9,286047001.7,N
1526174915.8,286047004.1,N
1526174935.6,286047003.6,N
1526174955.5,286047001.3,N
1526175005.3,286047001.1,E
1526175015.2,286046998.6,N
1526175035.1,286046996.5,P
1526175036.0,286046996.5,P
1526175055.8,286046998.1,N
1526175075.6,286046999.5,N
1526175095.5,286046999.1,N
1526175115.3,286046998.4,N
1526175135.2,286046997.7,N
1526175155.9,286046998.7,N
1526175175.7,286046999.1,N
1526175195.6,286046996.9,Y
1526175215.4,286047000.0,P
1526175235.2,286047000.9,N
1526175255.1,286046998.4,N
1526175256.0,286046998.4,N
1526175275.8,286047000.5,N
1526175295.7,286047001.0,N
1526175315.5,286047000.8,N
1526175335.3,286046998.8,N
1526175355.2,286046998.8,N
1526175375.0,286046999.6,N
1526175375.9,286046999.6,N
1526175395.7,286046998.5,N
1526175415.6,286047001.1,N
1526175435.4,286046998.5,N
1526175455.3,286046998.4,N
1526175475.1,286047001.1,N
1526175476.0,286047001.1,N
1526175495.8,286047000.7,N
1526175515.7,286046999.4,N
1526175535.5,286046998.6,N
1526175555.4,286046996.8,N
1526175575.2,286046997.0,N
1526175595.0,286046997.5,N
1526175595.9,286046997.5,N
1526175615.8,286046995.0,Y
1526175635.6,286046999.1,P
1526175655.4,286047001.1,P
1526175675.3,286047000.0,N
1526175695.1,286047000.0,N
1526175715.9,286046998.7,N
1526175735.7,286046999.8,N
1526175755.5,286047002.4,Y
1526175775.4,286047000.9,P
1526175795.2,286047000.0,N
1526175815.0,286046998.8,N
1526175815.9,286046998.8,N
1526175835.8,286046998.5,N
1526175855.6,286047000.3,N
1526175875.5,286047000.9,N
1526175895.3,286047000.2,N
1526175915.1,286047002.4,N
1526175935.9,286047002.4,N
1526175955.7,286047001.6,N
1526175975.5,286047004.4,Y
1526175995.4,286047004.4,P
1526176015.2,286047002.7,N
1526176035.1,286047001.2,N
1526176036.0,286047001.2,N
1526176055.8,286047000.3,N
1526176075.6,286047001.0,N
1526176095.5,286047000.7,N
1526176115.3,286046999.7,N
1526176135.2,286047003.2,N
1526176155.9,286047004.8,Y
1526176175.7,286047004.1,P
1526176195.6,286047001.4,N
1526176215.4,286047011.9,P
1526176235.2,286047004.0,N
1526176255.1,286047004.0,N
1526176256.0,286047004.0,N
1526176275.8,286047000.9,N
1526176295.7,286047002.3,N
1526176315.5,286047000.2,N
1526176335.3,286047000.5,N
1526176355.2,286047000.9,N
1526176375.0,286047001.2,N
1526176375.9,286047001.2,N
1526176395.7,286046999.7,N
1526176415.6,286047001.5,N
1526176435.4,286047005.9,N
1526176455.3,286047001.6,N
1526176475.1,286047000.4,N
1526176476.0,286047000.4,N
1526176495.8,286047000.3,N
1526176515.7,286046999.7,N
1526176535.5,286047000.4,N
1526176555.3,286047002.7,N
1526176575.2,286047002.1,N
1526176595.0,286046999.9,N
1526176595.9,286046999.9,N
1526176615.8,286046999.9,N
1526176635.6,286046999.7,N
1526176655.4,286046998.1,N
1526176675.3,286047001.9,N
1526176695.1,286047000.0,N
1526176715.9,286047001.7,N
1526176735.7,286047003.8,N
1526176755.5,286047001.5,N
1526176775.4,286047002.1,N
1526176795.2,286047001.3,N
